Location: Unspecified
(48.2082°N, 0.0000°E)
Time: 15:55:06
(UTC+00:00)

S-56A Canister/Altair - Pass Details

Date: 28 June 2019
Orbit: 633 x 2499 km, 38.9° (Epoch: 21 August)

Event Time Altitude Azimuth Distance (km) Brightness Sun altitude
Rises 18:29:57 0° 272° (W) 4,672 13.0 12.9°
Reaches altitude 10° 18:34:05 10° 261° (W) 3,340 12.0 12.3°
Maximum altitude 18:40:12 25° 210° (SSW) 1,942 9.8 11.3°
Drops below altitude 10° 18:44:50 10° 157° (SSE) 2,454 9.7 10.6°
Sets 18:47:23 0° 143° (SE) 3,211 10.2 10.2°
